Middleton, WI (53562)

4:29 PM CDT on June 25, 2017 (GMT -0500)
Sak's Woods, Middleton | | Change Station

Elev 948 ft 43.10 °N, 89.50 °W | Updated 31 seconds ago

Overcast
Overcast
63.9 °F
Feels Like 63.9 °F
N
2.0
Wind Variable Wind from South

Today
High -- | Low -- °F
--% Chance of Precip.
Yesterday
High -- | Low -- °F
Precip. -- in
Pressure 30.10 in
Visibility 10.0 miles
Clouds Scattered Clouds 3100 ft
Overcast 6000 ft
Dew Point 53 °F
Humidity 69%
Rainfall 0.00 in
Snow Depth Not available.
5:19 AM 8:41 PM
Waxing Crescent, 5% visible
METAR KC29 252115Z AUTO 28013G17KT 10SM SCT031 OVC060 19/11 A3010 RMK AO1 T01850109
Pressure 30.10 in
Visibility 10.0 miles
Clouds Scattered Clouds 3100 ft
Overcast 6000 ft
Dew Point 53 °F
Humidity 69%
Rainfall 0.00 in
Snow Depth Not available.
5:19 AM 8:41 PM
Waxing Crescent, 5% visible
METAR KC29 252115Z AUTO 28013G17KT 10SM SCT031 OVC060 19/11 A3010 RMK AO1 T01850109

Get Severe Weather Alerts

Thanks for signing up!

Be on the lookout for a verification email in your inbox.

You'll start receiving the daily forecast at 6 AM.

×

10-Day Weather Forecast

Almanac

Astronomy

Jun. 25, 2017 Rise Set
Actual Time
Civil Twilight
Nautical Twilight
Astronomical Twilight
Moon
Length of Visible Light
Length of Day
Tomorrow will be .
, % of the Moon is Illuminated

Today's Extremes

State Highs State Lows

Community

WunderPhotos

Category 6

Welcome to Category 6. This is the collective home for Weather Underground's featured writeups by Dr. Jeff Masters (right), Bob Henson (left), Chris Burt, and other regular contributors.

Nearby

Air Quality

  Air Quality AQ Index Pollutant
Not available.

Snow Depth

Station Depth Elevation

Earthquake Activity

City Distance Mag. Time & Date
Minimum magnitude displayed is 2.5.

Coastal Water Temperatures

Place Temperature

Stations

Nearby Weather Stations

Station Location Temp. Windchill Dew Point Humidity Wind Precip. Elev Updated Type
                   

Watches & Warnings

There are currently no watches in effect.